Tracking 19245 objects as of 18-Aug-2018
HD Live streaming from Space Station
objects crossing your sky now

FENGYUN 1C DEB

Track FENGYUN 1C DEB now!
10-day predictions


NORAD ID: 29776
Int'l Code: 1999-025BS
Perigee: 861.4 km
Apogee: 895.8 km
Inclination: 99.1 °
Period: 102.4 minutes
Semi major axis: 7249 km
RCS: 0.0722 m2 (small)
Launch date: May 10, 1999
Source: People's Republic of China (PRC)
Launch site: Taiyaun Space Center, China (TSC)

Note: This is SATELLITE DEBRIS
aabbcc
Your satellite tracking list
Your tracking list is empty




NASA's NSSDC Master Catalog

Two Line Element Set (TLE):
1 29776U 99025BS  18229.90810483 -.00000169  00000-0 -74462-4 0  9996
2 29776  99.0809 253.8639 0023714 197.1273 283.4077 14.06475421594947
Source of the keplerian elements: AFSPC